"read_dt","SO2 (ppb)","flags","PMT voltage (V)","lamp voltage (V)","lamp intensity (Hz)","internal temp (C)","react chamber temp (C)","sample flow (l/min)","pres (mmHg)","SO2 bkg (ppb)","SO2 coefficient"
2016-06-27 00:00:00,2331E-3,5C000400,-0724,0828,12271,029.2,045.5,0.253,749.5,01.17,0.508
2016-06-27 00:01:00,2186E-3,5C000400,-0724,0829,12251,029.1,045.5,0.253,749.5,01.17,0.508
2016-06-27 00:02:00,2210E-3,5C000400,-0724,0827,12196,029.2,045.5,0.253,749.4,01.17,0.508
2016-06-27 00:03:00,2254E-3,5C000400,-0724,0827,12354,029.2,045.5,0.253,749.5,01.17,0.508
2016-06-27 00:04:00,2239E-3,5C000400,-0724,0827,12252,029.1,045.5,0.253,749.4,01.17,0.508
2016-06-27 00:05:00,2156E-3,5C000400,-0724,0828,12037,029.2,045.5,0.252,749.4,01.17,0.508
2016-06-27 00:06:00,2181E-3,5C000400,-0724,0828,12249,029.2,045.5,0.253,749.3,01.17,0.508
2016-06-27 00:07:00,2360E-3,5C000400,-0724,0828,12022,029.2,045.5,0.252,749.4,01.17,0.508
2016-06-27 00:08:00,2288E-3,5C000400,-0724,0827,12133,029.2,045.5,0.253,749.5,01.17,0.508
2016-06-27 00:09:00,2180E-3,5C000400,-0724,0827,12156,029.2,045.5,0.252,749.4,01.17,0.508
2016-06-27 00:10:00,2147E-3,5C000400,-0724,0827,12183,029.2,045.5,0.253,749.6,01.17,0.508
2016-06-27 00:11:00,2211E-3,5C000400,-0724,0827,12246,029.2,045.5,0.252,749.6,01.17,0.508
2016-06-27 00:12:00,2359E-3,5C000400,-0724,0827,12184,029.2,045.5,0.253,749.5,01.17,0.508
2016-06-27 00:13:00,2164E-3,5C000400,-0724,0827,12170,029.2,045.5,0.252,749.7,01.17,0.508
2016-06-27 00:14:00,2314E-3,5C000400,-0724,0827,12276,029.2,045.5,0.253,749.7,01.17,0.508
2016-06-27 00:15:00,2260E-3,5C000400,-0724,0828,12180,029.2,045.5,0.252,749.7,01.17,0.508
2016-06-27 00:16:00,2218E-3,5C000400,-0724,0828,12230,029.2,045.5,0.253,749.7,01.17,0.508
2016-06-27 00:17:00,2282E-3,5C000400,-0724,0827,12013,029.2,045.5,0.252,749.8,01.17,0.508
2016-06-27 00:18:00,2279E-3,5C000400,-0724,0827,12252,029.2,045.5,0.252,749.9,01.17,0.508
2016-06-27 00:19:00,2233E-3,5C000400,-0724,0827,12246,029.2,045.5,0.252,749.8,01.17,0.508
2016-06-27 00:20:00,2118E-3,5C000400,-0724,0827,12185,029.2,045.5,0.252,749.8,01.17,0.508
2016-06-27 00:21:00,2056E-3,5C000400,-0724,0828,12152,029.2,045.5,0.253,749.8,01.17,0.508
2016-06-27 00:22:00,2228E-3,5C000400,-0724,0828,12106,029.2,045.5,0.252,749.9,01.17,0.508
2016-06-27 00:23:00,2243E-3,5C000400,-0724,0827,12235,029.2,045.5,0.253,749.9,01.17,0.508
2016-06-27 00:24:00,2316E-3,5C000400,-0724,0828,12046,029.2,045.5,0.252,750.0,01.17,0.508
2016-06-27 00:25:00,2181E-3,5C000400,-0724,0827,12068,029.2,045.5,0.252,750.0,01.17,0.508
2016-06-27 00:26:00,2377E-3,5C000400,-0724,0828,12191,029.2,045.5,0.253,750.0,01.17,0.508
2016-06-27 00:27:00,2125E-3,5C000400,-0724,0827,12304,029.2,045.5,0.252,750.1,01.17,0.508
2016-06-27 00:28:00,2128E-3,5C000400,-0724,0827,12195,029.2,045.5,0.253,750.0,01.17,0.508
2016-06-27 00:29:00,2255E-3,5C000400,-0724,0828,12187,029.2,045.5,0.252,750.0,01.17,0.508
2016-06-27 00:30:00,2289E-3,5C000400,-0724,0827,12202,029.2,045.5,0.253,750.0,01.17,0.508
2016-06-27 00:31:00,2285E-3,5C000400,-0724,0827,12155,029.2,045.5,0.253,750.0,01.17,0.508
2016-06-27 00:32:00,2214E-3,5C000400,-0724,0827,12122,029.2,045.5,0.252,750.1,01.17,0.508
2016-06-27 00:33:00,2251E-3,5C000400,-0724,0827,12127,029.2,045.5,0.253,750.1,01.17,0.508
2016-06-27 00:34:00,2331E-3,5C000400,-0724,0827,12335,029.2,045.5,0.252,750.0,01.17,0.508
2016-06-27 00:35:00,2160E-3,5C000400,-0724,0828,12268,029.2,045.5,0.253,750.2,01.17,0.508
2016-06-27 00:36:00,2260E-3,5C000400,-0724,0828,12184,029.2,045.5,0.252,750.2,01.17,0.508
2016-06-27 00:37:00,2189E-3,5C000400,-0724,0828,12254,029.2,045.5,0.253,750.2,01.17,0.508
2016-06-27 00:38:00,2323E-3,5C000400,-0724,0827,12271,029.2,045.5,0.253,750.3,01.17,0.508
2016-06-27 00:39:00,2080E-3,5C000400,-0724,0828,12330,029.2,045.5,0.252,750.4,01.17,0.508
2016-06-27 00:40:00,2207E-3,5C000400,-0724,0828,12248,029.2,045.5,0.253,750.4,01.17,0.508
2016-06-27 00:41:00,2319E-3,5C000400,-0724,0828,12245,029.2,045.5,0.252,750.4,01.17,0.508
2016-06-27 00:42:00,2295E-3,5C000400,-0724,0827,12324,029.2,045.5,0.253,750.4,01.17,0.508
2016-06-27 00:43:00,2220E-3,5C000400,-0724,0827,12150,029.2,045.5,0.252,750.4,01.17,0.508
2016-06-27 00:44:00,2256E-3,5C000400,-0724,0826,12179,029.3,045.5,0.253,750.4,01.17,0.508
2016-06-27 00:45:00,2215E-3,5C000400,-0724,0828,12168,029.3,045.5,0.252,750.4,01.17,0.508
2016-06-27 00:46:00,2277E-3,5C000400,-0724,0827,12360,029.3,045.5,0.253,750.4,01.17,0.508
2016-06-27 00:47:00,2156E-3,5C000400,-0724,0827,12345,029.2,045.5,0.253,750.4,01.17,0.508
2016-06-27 00:48:00,2111E-3,5C000400,-0724,0827,12096,029.3,045.5,0.252,750.4,01.17,0.508
2016-06-27 00:49:00,2292E-3,5C000400,-0724,0826,12231,029.2,045.5,0.253,750.4,01.17,0.508
2016-06-27 00:50:00,2115E-3,5C000400,-0724,0827,12276,029.2,045.5,0.252,750.4,01.17,0.508
2016-06-27 00:51:00,2285E-3,5C000400,-0724,0828,12280,029.2,045.5,0.253,750.4,01.17,0.508
2016-06-27 00:52:00,2144E-3,5C000400,-0724,0827,12256,029.2,045.5,0.252,750.4,01.17,0.508
2016-06-27 00:53:00,2295E-3,5C000400,-0724,0826,12030,029.2,045.5,0.253,750.4,01.17,0.508
2016-06-27 00:54:00,2144E-3,5C000400,-0724,0827,12348,029.2,045.5,0.252,750.4,01.17,0.508
2016-06-27 00:55:00,2350E-3,5C000400,-0724,0828,12242,029.3,045.5,0.252,750.4,01.17,0.508
2016-06-27 00:56:00,2238E-3,5C000400,-0724,0828,12207,029.3,045.5,0.253,750.4,01.17,0.508
2016-06-27 00:57:00,2220E-3,5C000400,-0724,0827,12179,029.3,045.5,0.252,750.4,01.17,0.508
2016-06-27 00:58:00,2134E-3,5C000400,-0724,0828,12127,029.3,045.5,0.253,750.4,01.17,0.508
2016-06-27 00:59:00,2206E-3,5C000400,-0724,0828,12166,029.2,045.5,0.253,750.4,01.17,0.508
2016-06-27 01:00:00,2206E-3,5C000400,-0724,0828,12269,029.3,045.5,0.252,750.4,01.17,0.508
2016-06-27 01:01:00,2253E-3,5C000400,-0724,0827,12299,029.3,045.5,0.253,750.4,01.17,0.508
2016-06-27 01:02:00,2229E-3,5C000400,-0724,0827,12088,029.3,045.5,0.252,750.4,01.17,0.508
2016-06-27 01:03:00,2405E-3,5C000400,-0724,0828,12212,029.3,045.5,0.253,750.4,01.17,0.508
2016-06-27 01:04:00,2178E-3,5C000400,-0724,0827,12096,029.3,045.5,0.252,750.4,01.17,0.508
2016-06-27 01:05:00,2202E-3,5C000400,-0724,0828,12214,029.3,045.5,0.253,750.4,01.17,0.508
2016-06-27 01:06:00,2271E-3,5C000400,-0724,0828,12229,029.3,045.5,0.252,750.4,01.17,0.508
2016-06-27 01:07:00,2282E-3,5C000400,-0724,0827,12213,029.3,045.5,0.252,750.4,01.17,0.508
2016-06-27 01:08:00,2372E-3,5C000400,-0724,0827,12297,029.3,045.5,0.252,750.4,01.17,0.508
2016-06-27 01:09:00,2229E-3,5C000400,-0724,0827,12208,029.3,045.5,0.252,750.4,01.17,0.508
2016-06-27 01:10:00,2300E-3,5C000400,-0724,0828,12269,029.3,045.5,0.252,750.4,01.17,0.508
2016-06-27 01:11:00,2263E-3,5C000400,-0724,0827,12233,029.3,045.5,0.252,750.4,01.17,0.508
2016-06-27 01:12:00,2075E-3,5C000400,-0724,0828,12189,029.3,045.5,0.253,750.4,01.17,0.508
2016-06-27 01:13:00,2151E-3,5C000400,-0724,0828,12209,029.3,045.5,0.252,750.4,01.17,0.508
2016-06-27 01:14:00,2343E-3,5C000400,-0724,0827,12236,029.3,045.5,0.253,750.4,01.17,0.508
2016-06-27 01:15:00,2115E-3,5C000400,-0724,0827,12215,029.3,045.5,0.252,750.3,01.17,0.508
2016-06-27 01:16:00,2273E-3,5C000400,-0724,0828,12281,029.3,045.5,0.252,750.4,01.17,0.508
2016-06-27 01:17:00,2180E-3,5C000400,-0724,0827,12167,029.4,045.5,0.252,750.4,01.17,0.508
2016-06-27 01:18:00,2308E-3,5C000400,-0724,0826,12188,029.4,045.5,0.252,750.4,01.17,0.508
2016-06-27 01:19:00,2153E-3,5C000400,-0724,0828,12289,029.3,045.5,0.252,750.4,01.17,0.508
2016-06-27 01:20:00,2280E-3,5C000400,-0724,0827,12135,029.4,045.5,0.252,750.4,01.17,0.508
2016-06-27 01:21:00,2190E-3,5C000400,-0724,0827,12169,029.4,045.5,0.252,750.4,01.17,0.508
2016-06-27 01:22:00,2084E-3,5C000400,-0724,0827,12092,029.4,045.5,0.252,750.4,01.17,0.508
2016-06-27 01:23:00,2338E-3,5C000400,-0724,0827,12165,029.4,045.5,0.252,750.4,01.17,0.508
2016-06-27 01:24:00,2115E-3,5C000400,-0724,0827,12192,029.4,045.5,0.252,750.4,01.17,0.508
2016-06-27 01:25:00,2177E-3,5C000400,-0724,0828,12232,029.4,045.5,0.252,750.5,01.17,0.508
2016-06-27 01:26:00,2111E-3,5C000400,-0724,0828,12258,029.4,045.5,0.252,750.4,01.17,0.508
2016-06-27 01:27:00,2235E-3,5C000400,-0724,0827,12147,029.4,045.5,0.252,750.5,01.17,0.508
2016-06-27 01:28:00,2113E-3,5C000400,-0724,0828,12253,029.4,045.5,0.252,750.5,01.17,0.508
2016-06-27 01:29:00,2178E-3,5C000400,-0724,0828,12058,029.4,045.5,0.252,750.5,01.17,0.508
2016-06-27 01:30:00,2266E-3,5C000400,-0724,0827,12225,029.4,045.5,0.252,750.5,01.17,0.508
2016-06-27 01:31:00,2069E-3,5C000400,-0724,0827,12186,029.4,045.5,0.252,750.6,01.17,0.508
2016-06-27 01:32:00,2208E-3,5C000400,-0724,0828,12284,029.4,045.5,0.252,750.5,01.17,0.508
2016-06-27 01:33:00,2226E-3,5C000400,-0724,0828,12169,029.4,045.5,0.252,750.5,01.17,0.508
2016-06-27 01:34:00,2116E-3,5C000400,-0724,0827,12156,029.4,045.5,0.252,750.6,01.17,0.508
2016-06-27 01:35:00,2243E-3,5C000400,-0724,0828,12288,029.4,045.5,0.252,750.6,01.17,0.508
2016-06-27 01:36:00,2280E-3,5C000400,-0724,0827,12200,029.4,045.5,0.252,750.6,01.17,0.508
2016-06-27 01:37:00,2323E-3,5C000400,-0724,0827,12198,029.5,045.5,0.252,750.7,01.17,0.508
2016-06-27 01:38:00,2368E-3,5C000400,-0724,0827,12266,029.5,045.5,0.252,750.7,01.17,0.508
2016-06-27 01:39:00,2230E-3,5C000400,-0724,0828,12169,029.5,045.5,0.252,750.6,01.17,0.508
2016-06-27 01:40:00,2149E-3,5C000400,-0724,0828,12158,029.5,045.5,0.252,750.6,01.17,0.508
2016-06-27 01:41:00,2072E-3,5C000400,-0724,0827,12183,029.4,045.5,0.252,750.7,01.17,0.508
2016-06-27 01:42:00,2261E-3,5C000400,-0724,0828,12257,029.5,045.5,0.252,750.7,01.17,0.508
2016-06-27 01:43:00,2181E-3,5C000400,-0724,0828,12087,029.4,045.5,0.252,750.7,01.17,0.508
2016-06-27 01:44:00,2183E-3,5C000400,-0724,0826,12296,029.5,045.5,0.252,750.7,01.17,0.508
2016-06-27 01:45:00,2124E-3,5C000400,-0724,0828,12221,029.5,045.5,0.252,750.7,01.17,0.508
2016-06-27 01:46:00,2216E-3,5C000400,-0724,0827,12374,029.5,045.5,0.252,750.7,01.17,0.508
2016-06-27 01:47:00,2124E-3,5C000400,-0724,0828,12353,029.5,045.5,0.252,750.7,01.17,0.508
2016-06-27 01:48:00,2344E-3,5C000400,-0724,0827,12191,029.5,045.5,0.252,750.6,01.17,0.508
2016-06-27 01:49:00,2180E-3,5C000400,-0724,0827,12213,029.5,045.5,0.252,750.7,01.17,0.508
2016-06-27 01:50:00,2365E-3,5C000400,-0724,0827,12198,029.5,045.5,0.252,750.6,01.17,0.508
2016-06-27 01:51:00,2293E-3,5C000400,-0724,0827,12195,029.5,045.5,0.252,750.7,01.17,0.508
2016-06-27 01:52:00,2295E-3,5C000400,-0724,0827,12104,029.5,045.5,0.252,750.7,01.17,0.508
2016-06-27 01:53:00,2124E-3,5C000400,-0724,0827,12314,029.5,045.5,0.252,750.7,01.17,0.508
2016-06-27 01:54:00,2122E-3,5C000400,-0724,0827,12324,029.5,045.5,0.252,750.6,01.17,0.508
2016-06-27 01:55:00,2051E-3,5C000400,-0724,0827,12158,029.5,045.5,0.252,750.6,01.17,0.508
2016-06-27 01:56:00,2283E-3,5C000400,-0724,0827,12254,029.5,045.5,0.252,750.5,01.17,0.508
2016-06-27 01:57:00,2188E-3,5C000400,-0724,0828,12251,029.5,045.5,0.252,750.6,01.17,0.508
2016-06-27 01:58:00,2426E-3,5C000400,-0724,0829,12275,029.5,045.5,0.252,750.6,01.17,0.508
2016-06-27 01:59:00,2345E-3,5C000400,-0724,0828,12169,029.5,045.5,0.252,750.5,01.17,0.508
2016-06-27 02:00:00,2301E-3,5C000400,-0724,0827,12211,029.5,045.5,0.252,750.5,01.17,0.508
2016-06-27 02:01:00,2192E-3,5C000400,-0724,0827,12219,029.5,045.5,0.252,750.6,01.17,0.508
2016-06-27 02:02:00,2183E-3,5C000400,-0724,0828,12256,029.5,045.5,0.252,750.6,01.17,0.508
2016-06-27 02:03:00,2204E-3,5C000400,-0724,0828,12201,029.5,045.5,0.252,750.6,01.17,0.508
2016-06-27 02:04:00,2181E-3,5C000400,-0724,0827,12210,029.6,045.5,0.252,750.6,01.17,0.508
2016-06-27 02:05:00,2074E-3,5C000400,-0724,0828,12354,029.6,045.5,0.252,750.6,01.17,0.508
2016-06-27 02:06:00,2205E-3,5C000400,-0724,0827,12179,029.6,045.5,0.252,750.6,01.17,0.508
2016-06-27 02:07:00,2068E-3,5C000400,-0724,0827,12191,029.6,045.5,0.252,750.7,01.17,0.508
2016-06-27 02:08:00,2302E-3,5C000400,-0724,0828,12174,029.6,045.5,0.252,750.7,01.17,0.508
2016-06-27 02:09:00,2280E-3,5C000400,-0724,0827,12137,029.6,045.5,0.252,750.7,01.17,0.508
2016-06-27 02:10:00,2231E-3,5C000400,-0724,0829,12296,029.6,045.5,0.252,750.7,01.17,0.508
2016-06-27 02:11:00,2143E-3,5C000400,-0724,0827,12178,029.6,045.5,0.252,750.7,01.17,0.508
2016-06-27 02:12:00,2206E-3,5C000400,-0724,0828,12124,029.6,045.5,0.252,750.8,01.17,0.508
2016-06-27 02:13:00,2134E-3,5C000400,-0723,0828,12147,029.6,045.5,0.252,750.7,01.17,0.508
2016-06-27 02:14:00,2330E-3,5C000400,-0724,0827,12184,029.6,045.5,0.252,750.8,01.17,0.508
2016-06-27 02:15:00,2207E-3,5C000400,-0724,0828,12175,029.6,045.5,0.252,750.8,01.17,0.508
2016-06-27 02:16:00,2267E-3,5C000400,-0724,0827,12139,029.6,045.5,0.252,750.8,01.17,0.508
2016-06-27 02:17:00,2295E-3,5C000400,-0724,0827,12035,029.6,045.5,0.252,750.9,01.17,0.508
2016-06-27 02:18:00,2182E-3,5C000400,-0724,0828,12252,029.6,045.5,0.252,750.9,01.17,0.508
2016-06-27 02:19:00,2161E-3,5C000400,-0724,0827,12113,029.6,045.5,0.252,751.0,01.17,0.508
2016-06-27 02:20:00,2224E-3,5C000400,-0724,0828,12172,029.6,045.5,0.252,751.0,01.17,0.508
2016-06-27 02:21:00,2438E-3,5C000400,-0723,0828,12197,029.6,045.5,0.252,751.0,01.17,0.508
2016-06-27 02:22:00,2206E-3,5C000400,-0724,0828,12191,029.6,045.5,0.252,751.0,01.17,0.508
2016-06-27 02:23:00,2199E-3,5C000400,-0724,0828,12237,029.6,045.5,0.252,751.0,01.17,0.508
2016-06-27 02:24:00,2187E-3,5C000400,-0724,0827,12158,029.6,045.5,0.252,751.0,01.17,0.508
2016-06-27 02:25:00,2384E-3,5C000400,-0724,0828,12195,029.6,045.5,0.252,751.0,01.17,0.508
2016-06-27 02:26:00,2197E-3,5C000400,-0724,0828,12147,029.6,045.5,0.251,751.0,01.17,0.508
2016-06-27 02:27:00,2330E-3,5C000400,-0724,0828,12364,029.6,045.5,0.252,751.0,01.17,0.508
2016-06-27 02:28:00,2283E-3,5C000400,-0724,0827,12268,029.6,045.5,0.252,751.1,01.17,0.508
2016-06-27 02:29:00,2330E-3,5C000400,-0724,0828,11985,029.6,045.5,0.252,751.1,01.17,0.508
2016-06-27 02:30:00,2247E-3,5C000400,-0724,0828,12269,029.7,045.5,0.252,751.1,01.17,0.508
2016-06-27 02:31:00,2163E-3,5C000400,-0724,0828,12204,029.6,045.5,0.252,751.1,01.17,0.508
2016-06-27 02:32:00,2194E-3,5C000400,-0724,0828,12131,029.6,045.5,0.252,751.2,01.17,0.508
2016-06-27 02:33:00,2342E-3,5C000400,-0724,0827,12267,029.6,045.5,0.251,751.1,01.17,0.508
2016-06-27 02:34:00,2241E-3,5C000400,-0724,0828,12293,029.7,045.5,0.252,751.2,01.17,0.508
2016-06-27 02:35:00,2216E-3,5C000400,-0724,0828,12213,029.7,045.5,0.251,751.2,01.17,0.508
2016-06-27 02:36:00,2384E-3,5C000400,-0724,0828,12278,029.7,045.5,0.252,751.1,01.17,0.508
2016-06-27 02:37:00,2218E-3,5C000400,-0724,0828,12220,029.7,045.5,0.252,750.9,01.17,0.508
2016-06-27 02:38:00,2275E-3,5C000400,-0724,0828,12202,029.6,045.5,0.252,750.9,01.17,0.508
2016-06-27 02:39:00,2241E-3,5C000400,-0724,0827,12299,029.7,045.5,0.252,751.1,01.17,0.508
2016-06-27 02:40:00,2117E-3,5C000400,-0724,0828,12184,029.7,045.5,0.251,751.0,01.17,0.508
2016-06-27 02:41:00,2170E-3,5C000400,-0724,0828,12338,029.7,045.5,0.252,751.1,01.17,0.508
2016-06-27 02:42:00,2275E-3,5C000400,-0724,0827,12393,029.7,045.5,0.252,751.1,01.17,0.508
2016-06-27 02:43:00,2211E-3,5C000400,-0724,0827,12236,029.7,045.5,0.252,751.2,01.17,0.508
2016-06-27 02:44:00,2310E-3,5C000400,-0724,0828,12242,029.7,045.5,0.252,751.2,01.17,0.508
2016-06-27 02:45:00,2271E-3,5C000400,-0724,0828,12302,029.7,045.5,0.252,751.2,01.17,0.508
2016-06-27 02:46:00,2164E-3,5C000400,-0724,0828,12219,029.7,045.5,0.252,751.2,01.17,0.508
2016-06-27 02:47:00,2307E-3,5C000400,-0724,0828,12160,029.7,045.5,0.251,751.3,01.17,0.508
2016-06-27 02:48:00,2180E-3,5C000400,-0724,0827,12213,029.7,045.5,0.252,751.2,01.17,0.508
2016-06-27 02:49:00,2108E-3,5C000400,-0723,0827,12138,029.7,045.5,0.251,751.2,01.17,0.508
2016-06-27 02:50:00,2181E-3,5C000400,-0723,0828,12339,029.7,045.5,0.252,751.2,01.17,0.508
2016-06-27 02:51:00,2141E-3,5C000400,-0724,0827,12385,029.7,045.5,0.252,751.1,01.17,0.508
2016-06-27 02:52:00,2297E-3,5C000400,-0724,0827,12268,029.7,045.5,0.252,751.1,01.17,0.508
2016-06-27 02:53:00,2171E-3,5C000400,-0723,0827,12164,029.7,045.5,0.252,751.2,01.17,0.508
2016-06-27 02:54:00,2182E-3,5C000400,-0724,0827,12268,029.7,045.5,0.251,751.1,01.17,0.508
2016-06-27 02:55:00,2307E-3,5C000400,-0724,0828,12237,029.7,045.5,0.252,751.0,01.17,0.508
2016-06-27 02:56:00,2229E-3,5C000400,-0723,0828,12283,029.7,045.5,0.252,751.1,01.17,0.508
2016-06-27 02:57:00,2187E-3,5C000400,-0724,0828,12216,029.7,045.5,0.252,751.1,01.17,0.508
2016-06-27 02:58:00,2372E-3,5C000400,-0724,0827,12267,029.7,045.5,0.252,751.1,01.17,0.508
2016-06-27 02:59:00,2196E-3,5C000400,-0724,0828,12122,029.7,045.5,0.251,751.0,01.17,0.508
2016-06-27 03:00:00,2142E-3,5C000400,-0724,0828,12161,029.7,045.5,0.252,751.1,01.17,0.508
2016-06-27 03:01:00,2085E-3,5C000400,-0724,0827,12198,029.7,045.5,0.251,751.2,01.17,0.508
2016-06-27 03:02:00,2149E-3,5C000400,-0724,0827,12252,029.7,045.5,0.252,751.2,01.17,0.508
2016-06-27 03:03:00,2155E-3,5C000400,-0724,0827,12274,029.7,045.5,0.252,751.2,01.17,0.508
2016-06-27 03:04:00,2269E-3,5C000400,-0724,0828,12214,029.7,045.5,0.252,751.2,01.17,0.508
2016-06-27 03:05:00,2343E-3,5C000400,-0724,0828,12204,029.7,045.5,0.252,751.3,01.17,0.508
2016-06-27 03:06:00,2258E-3,5C000400,-0724,0828,12163,029.8,045.5,0.251,751.2,01.17,0.508
2016-06-27 03:07:00,2079E-3,5C000400,-0724,0827,12250,029.7,045.5,0.252,751.3,01.17,0.508
2016-06-27 03:08:00,2189E-3,5C000400,-0724,0827,12102,029.7,045.5,0.251,751.3,01.17,0.508
2016-06-27 03:09:00,2258E-3,5C000400,-0724,0829,12233,029.7,045.5,0.252,751.4,01.17,0.508
2016-06-27 03:10:00,2149E-3,5C000400,-0724,0828,12103,029.7,045.5,0.252,751.4,01.17,0.508
2016-06-27 03:11:00,2219E-3,5C000400,-0724,0827,12331,029.8,045.5,0.251,751.3,01.17,0.508
2016-06-27 03:12:00,2297E-3,5C000400,-0724,0827,12189,029.8,045.5,0.252,751.2,01.17,0.508
2016-06-27 03:13:00,2325E-3,5C000400,-0724,0828,12181,029.7,045.5,0.251,751.4,01.17,0.508
2016-06-27 03:14:00,2230E-3,5C000400,-0724,0829,12180,029.7,045.5,0.252,751.5,01.17,0.508
2016-06-27 03:15:00,2205E-3,5C000400,-0724,0827,12087,029.7,045.5,0.252,751.5,01.17,0.508
2016-06-27 03:16:00,2172E-3,5C000400,-0724,0830,12162,029.8,045.5,0.251,751.6,01.17,0.508
2016-06-27 03:17:00,2164E-3,5C000410,-0724,0828,9977,029.7,045.5,0.252,751.6,01.17,0.508
2016-06-27 03:18:00,2189E-3,5C000400,-0724,0828,12045,029.8,045.5,0.251,751.6,01.17,0.508
2016-06-27 03:19:00,2180E-3,5C000400,-0724,0827,12185,029.8,045.5,0.252,751.7,01.17,0.508
2016-06-27 03:20:00,2182E-3,5C000400,-0724,0828,10123,029.7,045.5,0.251,751.6,01.17,0.508
2016-06-27 03:21:00,2098E-3,5C000400,-0724,0828,12300,029.7,045.5,0.252,751.7,01.17,0.508
2016-06-27 03:22:00,2175E-3,5C000400,-0724,0828,12310,029.8,045.5,0.251,751.6,01.17,0.508
2016-06-27 03:23:00,2240E-3,5C000400,-0724,0828,12300,029.7,045.5,0.252,751.6,01.17,0.508
2016-06-27 03:24:00,2209E-3,5C000400,-0723,0828,12354,029.8,045.5,0.252,751.6,01.17,0.508
2016-06-27 03:25:00,2224E-3,5C000400,-0724,0828,12249,029.8,045.5,0.252,751.7,01.17,0.508
2016-06-27 03:26:00,2188E-3,5C000400,-0724,0828,12138,029.8,045.5,0.252,751.5,01.17,0.508
2016-06-27 03:27:00,2304E-3,5C000400,-0724,0827,12284,029.8,045.5,0.251,751.6,01.17,0.508
2016-06-27 03:28:00,2434E-3,5C000400,-0723,0828,12176,029.8,045.5,0.252,751.6,01.17,0.508
2016-06-27 03:29:00,2136E-3,5C000400,-0724,0828,12153,029.7,045.5,0.251,751.6,01.17,0.508
2016-06-27 03:30:00,2199E-3,5C000400,-0724,0828,12129,029.7,045.5,0.252,751.6,01.17,0.508
2016-06-27 03:31:00,2131E-3,5C000400,-0724,0828,12241,029.8,045.5,0.251,751.7,01.17,0.508
2016-06-27 03:32:00,2266E-3,5C000400,-0724,0828,12278,029.7,045.5,0.252,751.7,01.17,0.508
2016-06-27 03:33:00,2310E-3,5C000400,-0723,0828,12215,029.8,045.5,0.252,751.7,01.17,0.508
2016-06-27 03:34:00,2314E-3,5C000400,-0724,0828,12248,029.8,045.5,0.251,751.7,01.17,0.508
2016-06-27 03:35:00,2195E-3,5C000400,-0724,0828,12322,029.8,045.5,0.252,751.7,01.17,0.508
2016-06-27 03:36:00,2150E-3,5C000400,-0724,0828,12217,029.7,045.5,0.251,751.6,01.17,0.508
2016-06-27 03:37:00,2153E-3,5C000400,-0723,0828,12152,029.8,045.5,0.252,751.6,01.17,0.508
2016-06-27 03:38:00,2260E-3,5C000400,-0723,0826,12184,029.8,045.5,0.252,751.6,01.17,0.508
2016-06-27 03:39:00,2124E-3,5C000400,-0723,0828,12256,029.8,045.5,0.251,751.7,01.17,0.508
2016-06-27 03:40:00,2127E-3,5C000400,-0724,0828,12207,029.8,045.5,0.252,751.7,01.17,0.508
2016-06-27 03:41:00,2185E-3,5C000400,-0723,0827,12269,029.8,045.5,0.251,751.7,01.17,0.508
2016-06-27 03:42:00,2147E-3,5C000400,-0723,0829,11069,029.7,045.5,0.252,751.8,01.17,0.508
2016-06-27 03:43:00,2150E-3,5C000400,-0724,0829,12059,029.8,045.5,0.252,751.8,01.17,0.508
2016-06-27 03:44:00,2071E-3,5C000400,-0724,0828,12125,029.8,045.5,0.252,751.8,01.17,0.508
2016-06-27 03:45:00,2174E-3,5C000400,-0724,0827,12328,029.8,045.5,0.252,751.9,01.17,0.508
2016-06-27 03:46:00,2190E-3,5C000400,-0724,0828,12207,029.8,045.5,0.251,752.0,01.17,0.508
2016-06-27 03:47:00,2155E-3,5C000400,-0724,0827,12224,029.8,045.5,0.252,751.9,01.17,0.508
2016-06-27 03:48:00,2313E-3,5C000400,-0723,0828,12097,029.8,045.5,0.251,751.9,01.17,0.508
2016-06-27 03:49:00,2181E-3,5C000400,-0724,0828,12241,029.8,045.5,0.252,751.9,01.17,0.508
2016-06-27 03:50:00,2311E-3,5C000400,-0724,0827,12215,029.8,045.5,0.252,751.9,01.17,0.508
2016-06-27 03:51:00,2178E-3,5C000400,-0724,0828,12173,029.8,045.5,0.251,751.9,01.17,0.508
2016-06-27 03:52:00,2373E-3,5C000400,-0724,0829,12176,029.8,045.5,0.252,751.8,01.17,0.508
2016-06-27 03:53:00,2098E-3,5C000400,-0724,0828,12192,029.8,045.5,0.251,751.9,01.17,0.508
2016-06-27 03:54:00,2413E-3,5C000400,-0723,0828,12214,029.8,045.5,0.252,751.9,01.17,0.508
2016-06-27 03:55:00,2159E-3,5C000400,-0724,0828,12138,029.8,045.5,0.252,751.8,01.17,0.508
2016-06-27 03:56:00,2218E-3,5C000400,-0723,0828,12236,029.8,045.5,0.251,751.8,01.17,0.508
2016-06-27 03:57:00,2224E-3,5C000400,-0724,0828,12144,029.8,045.5,0.252,751.9,01.17,0.508
2016-06-27 03:58:00,2159E-3,5C000400,-0724,0827,12218,029.8,045.5,0.252,751.9,01.17,0.508
2016-06-27 03:59:00,2185E-3,5C000400,-0724,0827,12171,029.8,045.5,0.252,751.9,01.17,0.508
2016-06-27 04:00:00,2118E-3,5C000400,-0724,0828,12248,029.8,045.5,0.252,751.9,01.17,0.508
2016-06-27 04:01:00,2310E-3,5C000400,-0723,0828,12318,029.8,045.5,0.252,751.9,01.17,0.508
2016-06-27 04:02:00,2207E-3,5C000400,-0723,0828,12274,029.8,045.5,0.251,751.9,01.17,0.508
2016-06-27 04:03:00,2237E-3,5C000400,-0724,0828,12173,029.8,045.5,0.252,751.9,01.17,0.508
2016-06-27 04:04:00,2196E-3,5C000400,-0724,0828,12206,029.8,045.5,0.251,751.9,01.17,0.508
2016-06-27 04:05:00,2428E-3,5C000400,-0723,0829,12194,029.8,045.5,0.251,751.9,01.17,0.508
2016-06-27 04:06:00,2176E-3,5C000400,-0723,0828,12153,029.9,045.5,0.252,751.9,01.17,0.508
2016-06-27 04:07:00,2145E-3,5C000400,-0724,0827,12198,029.8,045.5,0.251,751.9,01.17,0.508
2016-06-27 04:08:00,2359E-3,5C000400,-0724,0828,12143,029.8,045.5,0.252,752.0,01.17,0.508
2016-06-27 04:09:00,2195E-3,5C000400,-0723,0828,12199,029.8,045.5,0.251,752.0,01.17,0.508
2016-06-27 04:10:00,2227E-3,5C000400,-0723,0827,12299,029.8,045.5,0.251,752.0,01.17,0.508
2016-06-27 04:11:00,2199E-3,5C000400,-0724,0828,12239,029.8,045.5,0.252,752.1,01.17,0.508
2016-06-27 04:12:00,2252E-3,5C000400,-0724,0828,12294,029.8,045.5,0.251,752.1,01.17,0.508
2016-06-27 04:13:00,2189E-3,5C000400,-0723,0828,12165,029.8,045.5,0.252,752.2,01.17,0.508
2016-06-27 04:14:00,2269E-3,5C000400,-0724,0827,12337,029.8,045.5,0.251,752.2,01.17,0.508
2016-06-27 04:15:00,2135E-3,5C000400,-0723,0828,12101,029.8,045.5,0.251,752.2,01.17,0.508
2016-06-27 04:16:00,2370E-3,5C000400,-0723,0829,12156,029.8,045.5,0.252,752.2,01.17,0.508
2016-06-27 04:17:00,2213E-3,5C000400,-0723,0827,12170,029.8,045.5,0.251,752.2,01.17,0.508
2016-06-27 04:18:00,2452E-3,5C000400,-0724,0828,12202,029.8,045.5,0.252,752.3,01.17,0.508
2016-06-27 04:19:00,2418E-3,5C000400,-0724,0827,12077,029.9,045.5,0.252,752.3,01.17,0.508
2016-06-27 04:20:00,2304E-3,5C000400,-0723,0828,12173,029.8,045.5,0.251,752.3,01.17,0.508